SBI221 ULAA-URMM

Flight info

Callsign SBI221
Flight time N/A
Altitude 36000
Route ABELU3K ABELU T825 UREPI P65 ELMOD L4 LINRU T614 OSPER T828 NIBIM M54 LARIN LARIN5B
Aircraft A319/M-SDE3FGHIRWY/LB1

Departure

Time N/A
Airport Talagi Airport (ULAA)

Arrival

Time 2026-04-20 17:06
Airport Mineralnye Vody Airport (URMM)
Time Latitude Longitude Altitude Speed Heading
2026-04-20 15:21 55.31436 37.95644 36899 ft 459 kts 169°
2026-04-20 15:22 55.28291 37.96576 36901 ft 459 kts 170°
2026-04-20 15:22 55.22004 37.98431 36882 ft 459 kts 170°
2026-04-20 15:23 55.15712 38.00289 36874 ft 460 kts 170°
2026-04-20 15:23 55.09426 38.02144 36878 ft 460 kts 170°
2026-04-20 15:24 55.03167 38.03985 36882 ft 460 kts 169°
2026-04-20 15:24 54.96859 38.05838 36873 ft 460 kts 170°
2026-04-20 15:25 54.90570 38.07679 36871 ft 460 kts 170°
2026-04-20 15:25 54.84298 38.09510 36875 ft 460 kts 170°
2026-04-20 15:26 54.78025 38.11338 36875 ft 460 kts 170°
2026-04-20 15:26 54.71757 38.13155 36866 ft 460 kts 170°
2026-04-20 15:27 54.65466 38.14967 36875 ft 460 kts 170°
2026-04-20 15:27 54.59179 38.16778 36869 ft 459 kts 170°
2026-04-20 15:28 54.52923 38.18578 36863 ft 459 kts 170°
2026-04-20 15:28 54.46630 38.20383 36869 ft 459 kts 170°
2026-04-20 15:29 54.40376 38.22219 36865 ft 459 kts 168°
2026-04-20 15:29 54.34201 38.24874 36861 ft 459 kts 162°
2026-04-20 15:30 54.28228 38.28649 36859 ft 459 kts 156°
2026-04-20 15:30 54.22429 38.33100 36861 ft 459 kts 156°
2026-04-20 15:31 54.16631 38.37511 36857 ft 459 kts 156°
2026-04-20 15:31 54.10801 38.41937 36849 ft 459 kts 156°
2026-04-20 15:32 54.05025 38.46310 36858 ft 459 kts 156°
2026-04-20 15:32 53.99175 38.50725 36851 ft 459 kts 156°
2026-04-20 15:33 53.93365 38.55099 36848 ft 459 kts 156°
2026-04-20 15:33 53.87569 38.59449 36852 ft 460 kts 156°
2026-04-20 15:34 53.81715 38.63829 36846 ft 460 kts 156°
2026-04-20 15:34 53.75892 38.68172 36847 ft 460 kts 157°
2026-04-20 15:35 53.70068 38.72506 36838 ft 459 kts 157°
2026-04-20 15:35 53.64253 38.76819 36832 ft 460 kts 157°
2026-04-20 15:36 53.58387 38.81157 36830 ft 460 kts 157°
2026-04-20 15:36 53.52582 38.85440 36831 ft 460 kts 157°
2026-04-20 15:37 53.46743 38.89734 36825 ft 460 kts 157°
2026-04-20 15:37 53.40865 38.93980 36821 ft 460 kts 158°
2026-04-20 15:38 53.34993 38.98065 36822 ft 461 kts 158°
2026-04-20 15:38 53.29079 39.02171 36826 ft 461 kts 158°
2026-04-20 15:39 53.23183 39.06265 36820 ft 461 kts 158°
2026-04-20 15:39 53.17280 39.10356 36823 ft 461 kts 158°
2026-04-20 15:40 53.11401 39.14420 36819 ft 462 kts 158°
2026-04-20 15:40 53.05466 39.18514 36822 ft 462 kts 158°
2026-04-20 15:41 52.99546 39.22584 36826 ft 462 kts 158°
2026-04-20 15:41 52.93657 39.26625 36820 ft 462 kts 158°
2026-04-20 15:42 52.87731 39.30673 36824 ft 462 kts 159°
2026-04-20 15:42 52.81823 39.34698 36825 ft 461 kts 159°
2026-04-20 15:43 52.75921 39.38708 36822 ft 461 kts 159°
2026-04-20 15:43 52.70003 39.42719 36828 ft 461 kts 159°
2026-04-20 15:44 52.64087 39.46716 36833 ft 462 kts 159°
2026-04-20 15:44 52.58162 39.50713 36831 ft 462 kts 159°
2026-04-20 15:45 52.52217 39.54709 36832 ft 462 kts 159°
2026-04-20 15:45 52.46304 39.58670 36824 ft 463 kts 159°
2026-04-20 15:46 52.40484 39.63174 36826 ft 464 kts 154°
2026-04-20 15:46 52.34753 39.67884 36827 ft 464 kts 155°
2026-04-20 15:47 52.28973 39.72617 36824 ft 464 kts 155°
2026-04-20 15:47 52.23254 39.77294 36825 ft 465 kts 155°
2026-04-20 15:48 52.17498 39.81991 36827 ft 465 kts 155°
2026-04-20 15:48 52.11721 39.86694 36827 ft 465 kts 155°
2026-04-20 15:49 52.05965 39.91365 36830 ft 465 kts 155°
2026-04-20 15:49 52.00190 39.96034 36830 ft 465 kts 155°
2026-04-20 15:50 51.94418 40.00713 36831 ft 465 kts 155°
2026-04-20 15:50 51.88676 40.05367 36823 ft 465 kts 155°
2026-04-20 15:51 51.82895 40.10033 36818 ft 466 kts 155°
2026-04-20 15:51 51.77117 40.14681 36818 ft 465 kts 156°
2026-04-20 15:52 51.71397 40.19477 36819 ft 466 kts 152°
2026-04-20 15:52 51.65943 40.24995 36822 ft 466 kts 149°
2026-04-20 15:53 51.57780 40.33413 36822 ft 467 kts 149°
2026-04-20 15:53 51.52315 40.39027 36828 ft 467 kts 150°
2026-04-20 15:54 51.46846 40.44627 36831 ft 467 kts 150°
2026-04-20 15:54 51.41383 40.50202 36833 ft 467 kts 150°
2026-04-20 15:55 51.35794 40.55325 36840 ft 465 kts 156°
2026-04-20 15:55 51.29839 40.59245 36841 ft 461 kts 164°
2026-04-20 15:56 51.23698 40.61865 36843 ft 459 kts 171°
2026-04-20 15:56 51.17412 40.63455 36840 ft 458 kts 174°
2026-04-20 15:57 51.11140 40.64965 36839 ft 458 kts 174°
2026-04-20 15:57 51.04882 40.66472 36837 ft 458 kts 175°
2026-04-20 15:58 50.98584 40.67982 36840 ft 458 kts 175°
2026-04-20 15:58 50.92327 40.69477 36839 ft 458 kts 175°
2026-04-20 15:59 50.86042 40.70976 36844 ft 458 kts 175°
2026-04-20 15:59 50.79764 40.72471 36844 ft 458 kts 175°
2026-04-20 16:00 50.73450 40.73972 36853 ft 458 kts 175°
2026-04-20 16:00 50.67214 40.75658 36849 ft 460 kts 171°
2026-04-20 16:01 50.61018 40.78509 36859 ft 463 kts 163°
2026-04-20 16:01 50.55122 40.82579 36860 ft 467 kts 156°
2026-04-20 16:02 50.49558 40.87737 36869 ft 469 kts 152°
2026-04-20 16:02 50.44025 40.93170 36869 ft 469 kts 152°
2026-04-20 16:03 50.38527 40.98546 36874 ft 469 kts 152°
2026-04-20 16:03 50.32992 41.03937 36874 ft 470 kts 152°
2026-04-20 16:04 50.27466 41.09303 36869 ft 469 kts 152°
2026-04-20 16:04 50.21924 41.14669 36868 ft 468 kts 152°
2026-04-20 16:05 50.16416 41.19990 36870 ft 469 kts 152°
2026-04-20 16:05 50.10892 41.25312 36865 ft 469 kts 152°
2026-04-20 16:06 50.05368 41.30598 36869 ft 468 kts 153°
2026-04-20 16:06 49.99591 41.35197 36874 ft 465 kts 160°
2026-04-20 16:07 49.93560 41.38643 36881 ft 461 kts 167°
2026-04-20 16:07 49.87384 41.40916 36888 ft 457 kts 174°
2026-04-20 16:08 49.81147 41.42538 36882 ft 457 kts 174°
2026-04-20 16:08 49.74887 41.44183 36882 ft 456 kts 174°
2026-04-20 16:09 49.68641 41.45817 36892 ft 456 kts 174°
2026-04-20 16:09 49.62398 41.47444 36895 ft 456 kts 174°
2026-04-20 16:10 49.56191 41.49060 36897 ft 455 kts 174°
2026-04-20 16:10 49.49963 41.50677 36889 ft 454 kts 174°
2026-04-20 16:11 49.43741 41.52286 36893 ft 455 kts 174°
2026-04-20 16:11 49.37532 41.53889 36902 ft 455 kts 174°
2026-04-20 16:12 49.31292 41.55498 36897 ft 454 kts 174°
2026-04-20 16:12 49.25116 41.57083 36906 ft 454 kts 174°
2026-04-20 16:13 49.18883 41.58680 36913 ft 454 kts 175°
2026-04-20 16:13 49.12676 41.60267 36909 ft 454 kts 175°
2026-04-20 16:14 49.06461 41.61853 36906 ft 453 kts 175°
2026-04-20 16:14 49.00285 41.63420 36895 ft 452 kts 175°
2026-04-20 16:15 48.94104 41.64990 36900 ft 452 kts 175°
2026-04-20 16:15 48.87912 41.66557 36909 ft 452 kts 175°
2026-04-20 16:16 48.81748 41.68114 36910 ft 452 kts 176°
2026-04-20 16:16 48.75554 41.69674 36907 ft 451 kts 175°
2026-04-20 16:17 48.69364 41.71228 36904 ft 452 kts 176°
2026-04-20 16:17 48.63166 41.72781 36914 ft 451 kts 176°
2026-04-20 16:18 48.57015 41.74322 36908 ft 451 kts 175°
2026-04-20 16:18 48.50851 41.75859 36911 ft 450 kts 175°
2026-04-20 16:19 48.44698 41.77394 36907 ft 450 kts 176°
2026-04-20 16:19 48.38512 41.78931 36920 ft 450 kts 176°
2026-04-20 16:20 48.32379 41.80647 36920 ft 452 kts 172°
2026-04-20 16:20 48.26284 41.82839 36922 ft 452 kts 172°
2026-04-20 16:21 48.20185 41.85016 36931 ft 452 kts 172°
2026-04-20 16:21 48.14041 41.87210 36940 ft 452 kts 172°
2026-04-20 16:22 48.07928 41.89391 36942 ft 452 kts 172°
2026-04-20 16:22 48.01825 41.91566 36952 ft 453 kts 172°
2026-04-20 16:23 47.95740 41.93731 36946 ft 452 kts 172°
2026-04-20 16:23 47.89646 41.95895 36951 ft 451 kts 172°
2026-04-20 16:24 47.83552 41.98052 36958 ft 451 kts 172°
2026-04-20 16:24 47.77466 42.00194 36947 ft 450 kts 172°
2026-04-20 16:25 47.71398 42.02317 36957 ft 450 kts 172°
2026-04-20 16:25 47.65287 42.04456 36962 ft 451 kts 172°
2026-04-20 16:26 47.59220 42.06579 36956 ft 450 kts 172°
2026-04-20 16:26 47.53148 42.08698 36952 ft 450 kts 172°
2026-04-20 16:27 47.47074 42.10814 36954 ft 450 kts 172°
2026-04-20 16:27 47.40995 42.12927 36956 ft 449 kts 172°
2026-04-20 16:28 47.34931 42.15032 36962 ft 448 kts 172°
2026-04-20 16:28 47.28879 42.17126 36959 ft 448 kts 172°
2026-04-20 16:29 47.22836 42.19212 36955 ft 447 kts 172°
2026-04-20 16:29 47.16819 42.21286 36965 ft 447 kts 172°
2026-04-20 16:30 47.10769 42.23368 36962 ft 447 kts 172°
2026-04-20 16:30 47.04733 42.25437 36968 ft 447 kts 172°
2026-04-20 16:31 46.98685 42.27184 36970 ft 445 kts 175°
2026-04-20 16:31 46.92577 42.28665 36967 ft 446 kts 175°
2026-04-20 16:32 46.86457 42.30162 36969 ft 445 kts 175°
2026-04-20 16:32 46.80394 42.31635 36974 ft 444 kts 175°
2026-04-20 16:33 46.74320 42.33100 36971 ft 444 kts 175°
2026-04-20 16:33 46.68276 42.34697 36978 ft 445 kts 172°
2026-04-20 16:34 46.62239 42.36651 36980 ft 445 kts 172°
2026-04-20 16:34 46.56191 42.38594 36984 ft 446 kts 172°
2026-04-20 16:35 46.50135 42.40541 36979 ft 446 kts 172°
2026-04-20 16:35 46.44118 42.42476 36986 ft 446 kts 172°
2026-04-20 16:36 46.38051 42.44422 36986 ft 445 kts 172°
2026-04-20 16:36 46.32050 42.46343 36984 ft 445 kts 172°
2026-04-20 16:37 46.26035 42.48267 36993 ft 445 kts 172°
2026-04-20 16:37 46.19981 42.50198 36989 ft 445 kts 172°
2026-04-20 16:38 46.13959 42.52116 36995 ft 445 kts 172°
2026-04-20 16:38 46.07941 42.54017 36990 ft 444 kts 172°
2026-04-20 16:39 46.01914 42.55806 36994 ft 444 kts 172°
2026-04-20 16:39 45.95876 42.57585 36992 ft 444 kts 172°
2026-04-20 16:40 45.89846 42.59368 36991 ft 444 kts 172°
2026-04-20 16:40 45.83826 42.61153 36991 ft 443 kts 172°
2026-04-20 16:41 45.77806 42.62932 36992 ft 443 kts 172°
2026-04-20 16:41 45.74755 42.63832 36821 ft 442 kts 172°
2026-04-20 16:41 45.71772 42.64711 36614 ft 440 kts 172°
2026-04-20 16:42 45.68803 42.65585 36304 ft 437 kts 173°
2026-04-20 16:42 45.65816 42.66464 35819 ft 436 kts 173°
2026-04-20 16:42 45.62812 42.67346 35223 ft 439 kts 173°
2026-04-20 16:42 45.59762 42.68243 34573 ft 442 kts 173°
2026-04-20 16:43 45.56692 42.69143 33841 ft 445 kts 173°
2026-04-20 16:43 45.53680 42.70026 33045 ft 446 kts 173°
2026-04-20 16:43 45.50672 42.70906 32279 ft 447 kts 173°
2026-04-20 16:43 45.47644 42.71792 31527 ft 446 kts 173°
2026-04-20 16:44 45.44614 42.72747 30769 ft 447 kts 171°
2026-04-20 16:44 45.41596 42.73803 29958 ft 447 kts 171°
2026-04-20 16:44 45.38610 42.74838 29168 ft 446 kts 171°
2026-04-20 16:44 45.35594 42.75881 28343 ft 446 kts 170°
2026-04-20 16:45 45.32614 42.76911 27509 ft 446 kts 170°
2026-04-20 16:45 45.29593 42.77958 26939 ft 445 kts 170°
2026-04-20 16:45 45.26619 42.78989 26418 ft 442 kts 170°
2026-04-20 16:45 45.23641 42.80021 25892 ft 438 kts 170°
2026-04-20 16:46 45.20696 42.81040 25343 ft 434 kts 170°
2026-04-20 16:46 45.17811 42.82037 24809 ft 430 kts 170°
2026-04-20 16:46 45.14921 42.83033 24263 ft 426 kts 170°
2026-04-20 16:46 45.12064 42.84018 23722 ft 422 kts 170°
2026-04-20 16:47 45.09238 42.84989 23187 ft 418 kts 169°
2026-04-20 16:47 45.06442 42.85949 22649 ft 414 kts 169°
2026-04-20 16:47 45.03647 42.86910 22117 ft 410 kts 169°
2026-04-20 16:47 45.00904 42.87852 21591 ft 407 kts 169°
2026-04-20 16:48 44.98163 42.88794 21055 ft 403 kts 169°
2026-04-20 16:48 44.95467 42.89721 20529 ft 400 kts 169°
2026-04-20 16:48 44.92785 42.90642 20030 ft 397 kts 169°
2026-04-20 16:48 44.90096 42.91564 19484 ft 395 kts 169°
2026-04-20 16:49 44.87438 42.92475 18978 ft 392 kts 169°
2026-04-20 16:49 44.84793 42.93381 18462 ft 390 kts 169°
2026-04-20 16:49 44.82155 42.94283 17944 ft 388 kts 169°
2026-04-20 16:49 44.79555 42.95173 17433 ft 387 kts 169°
2026-04-20 16:50 44.76934 42.96069 16917 ft 385 kts 169°
2026-04-20 16:50 44.74353 42.96949 16413 ft 381 kts 169°
2026-04-20 16:50 44.71789 42.97826 15907 ft 379 kts 169°
2026-04-20 16:50 44.69259 42.98692 15398 ft 378 kts 168°
2026-04-20 16:51 44.66695 42.99569 14895 ft 375 kts 168°
2026-04-20 16:51 44.64187 43.00424 14387 ft 372 kts 168°
2026-04-20 16:51 44.61700 43.01324 13880 ft 370 kts 165°
2026-04-20 16:51 44.59257 43.02499 13388 ft 368 kts 160°
2026-04-20 16:52 44.56937 43.03942 12891 ft 366 kts 156°
2026-04-20 16:52 44.54694 43.05492 12404 ft 360 kts 156°
2026-04-20 16:52 44.52472 43.07044 11924 ft 357 kts 156°
2026-04-20 16:52 44.50270 43.08577 11454 ft 353 kts 156°
2026-04-20 16:53 44.48078 43.10098 11018 ft 347 kts 156°
2026-04-20 16:53 44.45966 43.11577 10791 ft 335 kts 154°
2026-04-20 16:53 44.44103 43.13475 10621 ft 324 kts 138°
2026-04-20 16:53 44.42721 43.15869 10453 ft 313 kts 125°
2026-04-20 16:54 44.41594 43.18408 10300 ft 300 kts 123°
2026-04-20 16:54 44.40561 43.20833 10171 ft 290 kts 123°
2026-04-20 16:54 44.39540 43.23193 10042 ft 278 kts 124°
2026-04-20 16:54 44.38543 43.25466 9906 ft 268 kts 124°
2026-04-20 16:55 44.37581 43.27639 9642 ft 264 kts 124°
2026-04-20 16:55 44.36619 43.29808 9371 ft 259 kts 124°
2026-04-20 16:55 44.35687 43.31916 9090 ft 256 kts 124°
2026-04-20 16:55 44.34754 43.34022 8827 ft 251 kts 123°
2026-04-20 16:56 44.33841 43.36081 8514 ft 249 kts 123°
2026-04-20 16:56 44.32939 43.38110 8207 ft 247 kts 123°
2026-04-20 16:56 44.32044 43.40122 7948 ft 242 kts 122°
2026-04-20 16:56 44.31172 43.42089 7598 ft 235 kts 122°
2026-04-20 16:57 44.30285 43.43972 7223 ft 228 kts 133°
2026-04-20 16:57 44.29068 43.45255 6896 ft 216 kts 160°
2026-04-20 16:57 44.27651 43.45681 6657 ft 202 kts 183°
2026-04-20 16:57 44.26300 43.45345 6366 ft 197 kts 204°
2026-04-20 16:58 44.25109 43.44442 6082 ft 194 kts 216°
2026-04-20 16:58 44.23986 43.43416 5821 ft 193 kts 217°
2026-04-20 16:58 44.22871 43.42390 5566 ft 194 kts 217°
2026-04-20 16:58 44.21737 43.41365 5310 ft 194 kts 217°
2026-04-20 16:59 44.20601 43.40345 5060 ft 194 kts 216°
2026-04-20 16:59 44.19470 43.39337 4814 ft 193 kts 215°
2026-04-20 16:59 44.18329 43.38333 4583 ft 194 kts 215°
2026-04-20 16:59 44.17194 43.37336 4341 ft 194 kts 215°
2026-04-20 17:00 44.14917 43.35328 4157 ft 194 kts 214°
2026-04-20 17:00 44.13784 43.34337 4134 ft 194 kts 214°
2026-04-20 17:00 44.12785 43.33108 4052 ft 189 kts 243°
2026-04-20 17:01 44.12550 43.31376 4041 ft 183 kts 281°
2026-04-20 17:01 44.12945 43.29796 4075 ft 161 kts 300°
2026-04-20 17:01 44.13488 43.28532 4064 ft 149 kts 304°
2026-04-20 17:01 44.14054 43.27345 3880 ft 143 kts 305°
2026-04-20 17:02 44.14577 43.26234 3669 ft 134 kts 305°
2026-04-20 17:02 44.15079 43.25148 3491 ft 133 kts 304°
2026-04-20 17:02 44.15568 43.24063 3322 ft 132 kts 304°
2026-04-20 17:02 44.16056 43.22979 3154 ft 132 kts 304°
2026-04-20 17:03 44.16544 43.21894 2980 ft 132 kts 304°
2026-04-20 17:03 44.17037 43.20803 2805 ft 132 kts 303°
2026-04-20 17:03 44.17522 43.19725 2627 ft 131 kts 303°
2026-04-20 17:03 44.18009 43.18644 2452 ft 131 kts 302°
2026-04-20 17:04 44.18499 43.17556 2270 ft 131 kts 302°
2026-04-20 17:04 44.18987 43.16471 2089 ft 130 kts 302°
2026-04-20 17:04 44.19469 43.15404 1913 ft 130 kts 302°
2026-04-20 17:04 44.19952 43.14331 1738 ft 130 kts 302°
2026-04-20 17:05 44.20440 43.13271 1577 ft 130 kts 301°
2026-04-20 17:05 44.20914 43.12214 1406 ft 129 kts 301°
2026-04-20 17:05 44.21389 43.11150 1219 ft 127 kts 301°
2026-04-20 17:05 44.21852 43.10128 1081 ft 125 kts 302°
2026-04-20 17:06 44.22257 43.09227 1061 ft 67 kts 307°
2026-04-20 17:06 44.22402 43.08920 1061 ft 28 kts 303°
2026-04-20 17:06 44.22360 43.08844 1061 ft 13 kts 151°
2026-04-20 17:06 44.22275 43.08908 1061 ft 14 kts 154°
2026-04-20 17:07 44.22185 43.08975 1061 ft 15 kts 152°
2026-04-20 17:07 44.22087 43.09042 1061 ft 15 kts 148°
2026-04-20 17:07 44.21988 43.09119 1061 ft 16 kts 154°
2026-04-20 17:07 44.21886 43.09086 1061 ft 16 kts 215°
2026-04-20 17:08 44.21815 43.08981 1061 ft 11 kts 218°
2026-04-20 17:08 44.21788 43.08954 1061 ft 0 kts 213°